Theta_e
282 282 282 282 282 283 284 284 284 284 285 285 285 285 283 283 280 279 280 281 282 286 288 286 290 291 293 292 294 292 292 292 290 292 292 292 292 292 294 297 299 299 300 300 301 302 302 303 304 304 304 304 305 306 307 308 309 309 310 312 316 318 318 317 316 315 315 313 313 313 314 314 314 315
281 281 281 281 281 282 282 283 283 283 283 284 284 284 284 284 281 280 279 279 284 283 287 288 287 291 291 292 291 291 292 292 291 293 293 293 293 293 293 296 297 298 300 300 300 301 302 302 303 304 304 304 304 305 305 307 308 309 309 310 312 316 317 317 316 315 315 313 312 313 313 313 314 314
280 280 280 281 281 281 281 282 282 282 283 283 283 283 284 283 283 281 280 278 282 286 284 287 289 288 289 290 290 291 291 291 291 292 293 293 292 292 293 293 294 296 297 297 298 299 300 301 302 303 304 304 305 305 305 305 307 308 309 309 311 313 316 317 315 314 313 312 312 312 313 312 313 314
279 279 279 279 280 280 280 281 281 281 282 282 282 282 282 282 283 282 281 279 279 284 284 284 286 287 287 289 288 289 290 291 289 292 292 292 290 291 292 291 292 293 295 296 297 298 299 300 300 301 302 303 304 305 305 305 305 308 309 309 309 311 314 315 314 314 313 313 312 312 312 312 312 313
278 278 278 278 279 279 279 279 280 280 281 281 281 282 282 281 282 282 280 279 279 282 285 284 284 286 287 286 288 287 288 289 290 289 291 291 291 291 291 291 290 292 293 294 296 297 298 299 300 300 301 302 302 303 305 306 305 306 308 309 308 309 313 315 315 313 312 313 312 312 312 313 312 312
276 276 276 276 277 278 278 279 279 279 279 280 280 280 280 280 280 282 280 279 279 278 282 283 285 284 287 284 287 286 287 288 289 289 290 290 291 290 291 291 291 291 292 293 294 295 297 298 299 300 300 301 301 303 304 304 304 305 307 307 308 308 312 314 315 314 311 312 312 311 311 311 312 312
275 275 275 275 276 277 276 277 277 278 278 279 279 279 280 279 280 281 281 280 278 278 279 282 282 283 284 284 284 286 287 288 288 287 288 288 289 290 290 290 291 291 292 293 294 295 296 297 297 298 299 300 300 301 302 303 303 304 306 306 308 308 309 310 312 312 312 312 312 311 310 311 311 312
274 274 274 274 275 275 274 275 275 276 276 276 277 277 278 279 279 280 280 280 280 279 278 280 281 282 282 283 285 286 286 286 286 287 287 288 288 288 289 289 290 290 292 293 294 295 295 296 297 297 298 298 299 299 300 301 302 304 304 304 305 307 308 308 309 310 311 311 312 311 311 311 310 311
273 273 273 273 274 274 273 273 274 274 274 275 275 275 276 277 277 278 279 279 280 279 278 278 280 281 282 283 283 284 283 284 285 286 286 287 287 287 288 289 289 289 291 292 292 293 294 295 295 296 297 297 298 299 299 300 301 301 304 303 303 305 307 307 307 307 307 307 309 310 311 310 309 309
273 272 272 273 273 273 272 272 273 273 273 274 274 274 275 275 276 276 277 278 278 278 278 278 278 280 280 280 281 283 284 283 283 284 285 286 287 287 286 287 288 289 289 289 290 290 291 292 294 295 296 296 297 298 299 299 300 299 300 301 302 303 305 306 306 306 306 305 305 306 309 309 309 308
272 272 272 272 273 273 273 273 273 273 273 274 274 275 275 276 276 276 277 277 277 277 277 278 278 279 280 281 279 282 284 283 283 282 282 283 285 287 286 286 288 288 289 290 290 290 291 290 291 292 293 295 296 297 297 298 299 298 297 299 301 302 303 304 305 305 305 304 304 304 304 305 308 308
272 272 272 272 273 273 273 273 273 273 273 274 273 274 275 275 275 275 275 275 276 276 276 276 276 278 278 279 281 282 282 281 281 283 282 281 282 283 285 286 286 287 288 287 288 289 290 290 291 292 293 293 294 294 295 296 296 296 297 298 299 302 302 303 303 303 303 303 303 303 303 303 304 307
272 272 272 272 272 272 273 274 274 274 275 273 272 273 274 273 273 273 273 273 274 274 275 275 276 276 277 278 279 279 279 279 279 282 282 281 282 283 283 285 287 287 286 287 287 287 288 288 288 289 289 291 292 292 293 294 293 294 296 297 299 300 301 302 302 302 302 302 302 302 302 302 302 302
271 271 271 272 273 273 273 273 274 274 275 275 274 273 273 273 272 272 272 272 272 272 272 273 274 275 275 277 278 278 279 281 281 281 281 280 281 282 282 283 285 287 287 285 285 286 289 288 287 288 287 289 289 290 291 291 292 293 295 296 297 298 299 301 301 301 301 301 301 301 301 301 301 301
270 270 271 270 270 271 271 271 272 274 274 275 275 276 276 276 273 272 272 272 273 272 272 273 273 273 274 276 278 279 279 281 280 280 280 280 281 280 279 278 282 287 287 285 285 285 288 288 286 287 287 288 289 289 289 291 291 292 294 295 296 297 298 300 301 301 301 301 301 301 301 301 301 301
269 269 268 269 269 269 270 270 270 271 273 274 274 275 275 275 276 276 274 272 272 272 272 272 273 273 274 275 276 276 278 279 280 280 280 280 279 279 279 280 279 284 288 285 284 284 287 288 286 286 287 288 289 289 289 290 291 292 293 294 294 295 296 298 300 300 300 300 300 300 300 300 300 300
268 267 267 268 268 269 271 270 270 270 270 272 273 273 274 274 275 275 277 277 275 274 273 272 272 273 273 273 275 278 278 279 278 278 278 280 280 280 280 280 281 283 287 284 283 282 285 287 285 285 287 288 289 289 290 291 291 292 293 293 294 294 295 296 298 300 300 300 300 300 300 300 299 299
267 267 267 267 267 268 269 269 269 269 269 270 270 270 271 271 273 275 276 276 277 276 274 273 272 274 275 274 275 277 278 277 276 276 276 277 277 278 279 281 282 284 286 283 282 281 283 286 285 284 286 288 288 288 289 290 291 292 293 293 293 294 295 296 297 298 299 300 300 300 300 299 299 299
268 268 268 268 268 268 269 269 270 270 270 270 270 270 271 271 272 273 273 274 273 273 274 274 274 275 276 276 277 278 279 278 278 279 278 279 279 279 281 281 281 281 283 283 282 278 281 285 284 284 286 287 287 288 289 290 291 292 292 293 293 294 294 295 296 297 299 299 299 299 299 299 299 298
268 269 269 268 268 268 269 271 274 273 272 271 271 271 272 272 273 273 275 277 277 276 275 275 275 276 276 279 278 279 279 280 280 281 280 280 280 278 277 277 279 279 282 283 281 279 280 283 282 283 285 286 286 287 287 289 291 292 292 292 293 293 294 294 295 296 297 299 299 299 299 299 298 298
269 269 269 269 269 269 269 272 275 275 275 272 272 272 272 272 272 273 274 277 278 279 279 279 280 280 281 281 281 282 282 280 280 278 276 275 277 276 275 277 278 278 281 283 283 281 279 282 283 283 284 285 285 285 286 287 289 291 292 292 293 293 293 294 294 295 295 297 298 299 299 299 298 297
269 269 271 271 270 270 270 273 275 276 275 273 272 272 272 271 271 272 274 274 275 278 279 279 280 280 280 280 280 281 280 280 280 276 273 276 276 274 275 274 276 278 280 282 284 281 280 282 283 282 283 284 285 285 286 287 287 288 290 292 293 293 293 293 294 294 294 295 296 298 299 299 298 297
269 269 271 272 273 273 273 276 277 277 275 273 273 273 272 271 271 272 274 274 274 274 274 275 275 276 277 277 276 276 279 279 278 277 276 276 274 273 273 274 275 275 277 282 285 280 280 281 282 282 280 279 283 285 286 286 286 287 287 288 290 292 293 293 293 293 293 294 295 296 298 298 297 296
269 270 270 271 274 276 276 277 277 277 277 275 274 274 273 272 271 274 274 274 274 274 275 275 275 275 276 276 276 276 275 275 275 275 275 276 275 274 274 275 275 274 276 280 283 280 281 282 281 284 282 279 278 282 283 284 285 285 286 286 287 289 291 292 292 293 293 293 294 295 296 297 297 295
269 270 270 271 273 276 276 277 277 277 277 277 275 274 273 273 275 277 275 275 276 274 274 274 274 274 274 274 273 273 273 273 273 274 275 275 275 275 274 274 273 274 277 280 283 280 278 280 279 281 281 281 281 281 282 282 284 283 284 285 285 287 289 291 292 292 292 293 293 294 294 295 296 296
270 270 271 271 273 276 277 277 277 277 278 278 275 275 277 278 278 275 275 275 274 273 272 272 271 271 270 270 270 270 271 272 272 273 273 275 275 275 275 274 273 272 273 279 282 280 279 279 280 279 280 280 280 282 281 281 282 283 284 284 285 285 287 287 289 290 291 290 290 292 292 294 295 296
270 271 271 272 274 276 277 277 277 278 278 277 275 277 278 278 278 277 273 272 271 270 269 269 268 268 268 268 268 269 270 271 272 272 273 273 273 274 274 275 276 276 277 278 279 278 277 277 280 279 278 280 279 281 281 280 281 282 281 282 283 284 286 286 287 287 289 289 289 291 292 293 293 294
271 271 272 273 276 277 277 278 278 278 277 275 277 277 277 277 275 271 269 268 267 267 267 266 266 267 268 268 268 269 270 271 271 272 272 273 273 273 274 274 275 276 276 277 277 277 277 277 278 280 280 279 278 277 278 282 282 281 280 282 282 283 284 285 285 286 287 288 288 288 288 288 289 290
272 274 276 277 277 277 276 276 275 274 274 275 275 275 274 272 268 267 266 266 266 265 265 265 266 266 267 268 269 270 270 271 272 271 272 273 273 273 274 274 274 275 275 276 276 277 278 278 279 279 280 280 279 279 280 280 282 281 280 280 279 280 282 283 284 284 285 286 287 287 286 287 287 288
276 276 275 276 275 273 272 270 269 269 269 272 272 271 269 266 266 266 265 265 265 264 265 265 265 266 267 268 269 269 269 269 268 269 269 269 270 271 272 271 272 274 275 277 277 278 279 279 280 280 279 279 280 279 280 280 280 282 281 280 281 282 282 282 282 283 284 284 285 285 287 288 287 287
271 271 272 271 272 270 270 269 268 268 267 265 265 265 265 265 265 265 265 265 265 265 265 265 266 267 267 268 268 267 268 267 268 269 269 269 269 270 270 270 270 272 274 276 277 278 278 279 279 280 278 279 280 280 281 281 280 281 281 281 282 278 280 281 281 282 283 283 284 284 285 286 286 286
270 269 268 266 264 264 263 263 263 263 263 264 264 264 264 264 265 266 267 267 266 266 266 266 266 266 267 266 267 267 267 267 268 269 268 268 268 269 269 268 268 270 271 273 275 278 280 280 280 280 280 280 278 280 281 281 281 281 282 281 281 282 283 280 280 281 282 282 282 282 283 284 284 285
265 263 262 261 261 261 261 261 261 261 262 262 262 262 263 263 264 263 263 263 264 265 265 264 265 265 266 266 267 267 267 267 268 269 268 268 268 269 269 268 268 268 269 270 272 275 277 279 280 281 281 281 281 280 280 279 280 282 282 280 280 280 281 281 281 281 282 281 280 281 282 283 284 285
260 259 259 259 259 259 259 259 260 260 260 260 261 261 263 263 262 263 263 263 264 264 264 264 265 265 265 265 266 266 266 267 268 269 269 268 268 267 267 266 267 269 270 270 272 273 275 277 278 280 281 281 281 281 281 280 280 281 281 282 280 280 282 282 281 281 281 280 280 280 280 281 284 285
258 258 257 258 258 259 259 259 259 259 259 260 260 260 261 262 262 262 263 263 264 264 264 264 265 265 265 265 266 266 266 267 267 268 268 268 268 267 267 267 267 268 269 270 271 273 274 275 276 277 278 278 277 279 280 282 281 282 282 281 281 280 280 281 281 280 281 281 281 279 280 281 282 284
257 257 257 257 257 258 258 258 259 259 259 259 259 260 260 261 262 262 262 263 264 264 264 264 264 265 265 266 266 267 267 267 267 267 267 267 267 267 268 268 268 269 270 270 272 274 274 275 275 275 274 275 274 275 277 282 282 281 280 279 280 280 281 281 281 280 280 280 280 280 279 279 280 283
256 257 257 257 257 258 258 258 258 259 259 259 260 260 260 260 262 262 263 264 264 264 264 265 265 266 266 267 267 267 267 267 267 267 267 267 267 267 267 267 268 269 269 270 272 274 275 275 276 275 275 274 274 273 275 277 280 283 281 280 279 279 280 279 279 278 279 280 280 280 279 280 280 282
256 257 257 257 257 258 258 258 258 258 259 260 260 260 261 261 262 263 264 264 264 265 265 266 266 267 267 267 267 267 267 267 267 267 267 268 267 267 267 267 268 269 270 272 273 274 275 276 276 276 276 274 273 273 273 275 275 277 281 281 279 278 279 278 277 277 278 280 279 280 281 280 280 282
256 256 256 256 257 257 257 258 258 259 259 259 260 260 261 262 263 264 264 265 265 266 266 266 266 267 267 268 268 268 268 267 267 267 268 268 268 268 268 268 268 269 270 270 271 273 275 275 276 276 277 276 274 275 276 274 274 276 277 282 281 278 278 278 277 277 277 277 278 279 277 278 279 280
256 257 257 257 257 258 258 259 259 259 259 260 260 261 262 263 264 264 265 265 266 266 266 266 267 267 267 267 268 268 268 268 268 268 268 268 268 269 269 269 269 270 271 271 272 273 275 275 276 277 277 278 278 278 278 276 273 273 274 278 282 279 278 278 277 277 276 277 278 276 275 276 274 277
256 256 256 257 257 258 258 258 259 259 260 261 261 263 264 264 265 265 266 266 266 265 265 266 266 266 266 267 267 268 268 268 268 269 269 269 269 269 270 270 270 270 270 271 272 273 274 276 276 278 277 275 275 276 274 272 272 272 272 274 278 280 280 279 278 278 277 277 277 275 274 273 273 275
256 256 256 257 257 257 258 258 259 260 261 262 263 264 265 265 266 267 266 266 266 266 266 266 266 266 266 267 267 268 268 268 269 269 270 269 269 270 270 270 270 271 271 272 273 275 275 274 275 275 275 275 275 274 272 273 272 270 271 273 275 279 280 279 278 278 278 277 275 272 271 271 272 271
255 256 256 256 257 257 258 258 259 260 261 263 263 264 265 265 266 266 266 265 265 265 265 265 266 266 266 266 267 268 268 269 270 270 270 270 270 270 270 271 272 273 274 273 272 272 272 273 274 274 275 275 275 275 273 273 271 269 270 271 272 275 276 278 279 279 278 278 277 276 275 273 271 269
255 255 256 256 257 257 257 258 259 261 261 262 264 265 265 266 266 266 266 265 265 265 265 265 265 265 265 266 267 268 268 269 270 271 270 271 272 272 272 272 273 273 272 272 271 271 271 272 273 274 273 273 273 273 271 270 269 269 270 270 271 272 271 272 272 274 275 276 277 277 277 276 276 275
255 255 256 256 257 257 257 258 259 260 261 262 263 264 265 266 266 266 266 266 265 265 265 265 265 265 265 266 266 266 268 270 270 270 272 272 272 272 273 273 273 272 271 271 270 270 270 271 272 272 271 271 271 271 270 270 268 268 269 269 269 269 270 271 270 269 268 268 272 276 276 276 276 276
Wind_Speed
5 5 5 5 6 6 5 5 4 5 5 5 6 6 7 8 10 11 9 10 10 8 2 9 2 3 3 3 3 3 3 6 7 5 6 6 7 9 15 18 18 19 20 20 22 22 23 22 22 22 23 23 24 25 25 24 23 23 23 25 24 22 23 22 22 22 22 23 23 23 21 20 23 22
6 6 5 5 6 5 5 6 6 6 6 6 6 6 6 6 9 10 12 14 7 10 9 8 9 1 4 4 3 3 5 9 12 7 7 7 8 10 14 17 19 19 20 21 21 22 23 23 23 23 23 24 25 26 26 25 25 24 24 26 28 25 24 25 23 23 22 23 23 23 24 23 23 24
6 8 8 7 6 6 7 7 6 6 6 7 7 6 6 6 9 10 11 14 9 4 9 9 7 11 9 8 10 6 6 8 11 9 9 8 12 13 11 15 17 19 20 20 20 21 23 24 24 24 23 23 24 25 26 26 26 26 25 26 27 27 24 24 25 24 24 23 23 23 24 24 23 24
7 8 9 8 7 9 8 8 7 7 7 7 8 8 7 8 8 9 11 13 18 9 9 13 14 14 15 10 11 11 6 7 10 8 8 10 13 8 8 13 14 16 18 19 20 21 22 23 24 25 24 25 25 25 26 27 27 26 25 26 27 27 25 22 21 21 20 20 21 23 22 22 22 23
8 9 9 9 8 8 10 9 8 8 9 8 8 8 8 9 9 8 10 13 16 14 7 9 11 10 12 16 11 12 11 7 7 9 8 9 7 8 7 8 13 15 17 19 20 21 22 23 23 24 24 24 25 25 26 27 26 26 26 25 26 28 28 25 22 20 19 20 21 20 21 20 21 22
7 9 10 10 10 9 10 10 10 9 10 10 10 10 9 10 10 8 10 12 14 19 13 10 8 10 7 15 14 12 13 12 8 8 8 7 7 8 8 7 7 12 16 18 20 21 22 23 23 24 23 24 24 25 25 24 23 24 25 24 24 24 25 26 25 22 21 21 22 22 22 21 21 23
10 10 10 11 10 9 11 11 10 10 10 10 11 12 11 12 12 11 10 11 15 17 18 13 13 10 9 11 14 14 11 13 10 11 10 9 8 7 8 8 7 9 16 19 20 21 21 22 23 23 24 24 24 24 24 23 23 23 24 24 23 23 23 23 23 23 22 21 22 24 23 22 23 23
11 12 12 11 11 12 13 12 11 10 10 10 11 12 12 12 13 12 12 12 13 15 17 16 13 10 11 10 11 11 11 14 15 11 12 9 8 9 8 9 8 9 17 19 21 21 22 22 22 23 23 24 24 24 24 24 23 22 23 23 23 22 22 22 23 23 23 22 22 25 25 25 23 24
11 11 11 12 12 12 12 13 11 10 13 12 11 12 12 12 12 11 12 13 13 15 17 18 15 13 13 11 11 11 13 13 15 15 14 11 10 9 9 8 8 14 15 19 20 21 21 22 22 23 23 24 24 25 25 24 24 23 22 23 23 23 23 22 22 22 22 22 22 23 26 28 27 26
9 10 11 11 11 11 11 12 12 12 13 12 12 13 13 12 12 13 14 13 14 15 16 17 19 16 14 12 10 9 11 12 14 15 14 13 9 8 9 8 7 5 6 6 8 12 15 18 22 23 23 24 25 25 25 24 23 23 22 21 23 23 24 23 22 22 22 22 22 22 22 28 28 27
10 10 11 11 10 11 11 12 12 13 14 12 14 13 13 13 13 13 13 13 14 14 16 16 17 18 16 14 16 11 10 12 13 14 14 13 10 10 9 11 6 6 8 11 14 13 13 15 13 16 21 24 25 25 24 24 24 22 21 21 21 23 24 24 23 22 22 22 22 22 22 22 25 28
10 10 10 10 10 10 10 11 12 12 13 12 14 12 12 13 14 13 13 13 13 13 14 15 16 15 16 15 14 13 14 13 13 11 12 15 14 14 10 9 9 6 8 8 7 8 12 14 17 20 21 24 24 24 22 23 23 22 20 20 21 21 24 25 25 24 23 22 22 23 23 23 24 25
11 11 10 11 11 12 15 19 17 17 16 13 13 13 12 13 13 13 13 13 13 13 14 16 15 16 16 16 15 14 12 13 14 12 10 13 14 14 14 12 10 9 10 8 9 8 8 9 9 8 9 11 16 17 20 19 21 21 20 20 21 22 22 25 26 25 24 24 24 24 24 24 25 26
11 12 11 11 16 18 19 19 19 19 19 19 15 13 13 13 12 13 13 13 13 13 15 15 15 16 16 16 15 15 15 14 14 15 13 14 14 15 15 14 13 7 9 9 11 9 7 8 9 9 9 9 9 8 10 11 13 15 18 21 21 23 23 23 25 25 26 25 25 25 25 24 25 25
13 11 12 12 14 15 15 14 18 18 20 19 20 21 20 17 14 13 14 13 12 13 14 14 15 16 19 19 17 16 15 13 13 14 14 14 14 14 14 15 13 9 7 8 10 10 6 7 10 9 9 9 7 8 10 13 16 18 21 22 23 23 24 23 24 26 26 27 26 26 25 25 25 25
12 13 12 12 11 11 12 14 14 16 18 19 19 20 20 20 22 22 16 15 13 13 14 15 15 15 16 18 17 17 16 15 14 14 14 15 15 16 16 15 16 8 3 8 11 13 7 7 9 10 8 8 7 8 12 16 19 20 21 22 23 23 24 24 24 25 26 26 26 26 26 25 25 24
12 11 12 12 11 11 17 14 14 14 14 16 19 20 21 20 20 20 21 21 17 14 15 15 17 15 16 18 17 15 15 14 16 15 14 13 13 13 15 17 16 16 6 6 13 16 13 6 8 11 8 9 6 7 13 19 19 20 21 22 23 23 23 24 24 24 25 25 26 26 26 25 25 24
12 12 12 12 12 12 13 13 14 14 14 15 15 14 14 14 17 20 22 21 22 19 15 16 17 17 15 17 17 17 16 17 17 17 17 16 16 15 15 16 16 15 12 12 13 17 16 10 7 12 10 8 7 8 12 17 19 20 22 22 22 23 23 23 23 24 24 25 25 25 25 25 25 24
12 13 12 13 14 14 14 13 16 16 16 15 13 13 13 14 14 13 13 14 14 13 13 15 17 18 17 18 19 17 16 16 16 16 18 18 17 17 18 17 17 17 15 16 13 18 17 13 9 11 13 9 7 8 12 17 19 21 21 22 22 22 23 23 23 23 23 24 24 25 25 25 25 25
12 12 13 13 14 14 14 18 24 22 18 15 14 15 13 12 12 15 17 22 20 18 16 16 17 16 18 22 21 19 17 15 14 14 15 15 15 14 15 16 13 13 10 13 14 15 18 15 15 15 13 11 9 8 8 13 20 21 21 22 23 23 23 23 23 23 23 23 24 25 25 25 25 25
11 12 14 13 13 14 14 20 25 25 24 15 14 14 13 13 13 14 14 20 24 26 27 28 28 28 28 27 28 28 29 21 17 14 14 13 11 13 13 13 12 13 10 10 12 14 18 15 13 14 14 12 11 12 8 8 15 21 21 22 23 23 23 23 23 23 24 23 23 23 24 24 24 24
12 14 22 21 18 18 17 23 25 25 21 14 13 13 15 15 13 12 13 12 14 23 27 29 28 27 26 27 27 25 24 25 20 14 16 13 12 15 14 14 13 14 13 12 11 12 17 15 13 13 13 13 9 11 11 8 8 15 18 23 23 23 23 23 23 22 22 24 24 22 24 24 23 18
13 14 16 21 20 20 22 27 26 27 22 14 14 13 12 13 12 12 12 12 13 12 12 12 14 14 18 16 16 19 24 24 21 16 15 12 12 15 14 14 14 14 11 6 6 10 11 13 12 12 12 14 11 9 9 9 8 7 8 9 13 22 24 24 22 21 22 24 25 24 23 22 21 12
12 12 12 14 20 26 26 27 28 27 27 18 15 13 11 12 13 11 13 13 11 10 9 10 11 14 15 14 15 15 15 16 16 17 16 14 13 14 15 14 13 15 12 6 5 9 10 10 12 10 13 14 13 5 3 7 8 7 8 9 9 13 19 21 19 22 22 23 24 25 25 23 21 13
8 9 9 8 16 24 26 27 28 29 29 27 18 12 9 11 15 19 13 12 18 13 12 11 11 11 10 11 10 11 12 12 13 14 15 15 15 14 14 14 14 15 14 11 14 13 13 10 12 9 9 11 12 13 3 4 5 6 6 8 8 7 6 7 6 8 15 22 24 25 24 25 26 19
13 12 11 11 18 26 28 28 29 30 28 29 14 10 19 24 25 17 14 11 8 9 9 10 11 11 11 10 10 11 11 11 12 12 13 14 14 14 14 14 15 15 15 12 18 14 15 13 11 12 12 11 12 11 11 5 3 5 6 7 8 7 6 7 7 7 6 7 9 12 15 23 25 27
11 12 14 15 24 27 29 29 29 27 26 19 13 22 23 23 26 21 9 9 10 10 10 11 12 12 12 12 12 12 12 11 12 12 12 13 14 15 15 17 17 17 16 13 12 13 13 15 13 12 13 13 16 13 10 10 7 3 5 5 6 6 6 7 8 8 8 9 8 13 16 19 21 22
14 14 13 14 27 29 28 27 25 24 22 16 21 22 24 26 22 10 9 9 10 11 12 12 13 13 12 12 12 12 12 12 13 14 14 15 15 15 15 16 18 17 18 16 14 14 14 14 13 14 16 14 15 16 16 9 8 4 5 6 6 6 6 7 7 7 6 7 9 7 7 7 9 11
13 19 26 27 25 24 22 22 21 17 18 22 23 24 24 20 8 9 9 10 10 11 12 12 12 12 12 12 12 13 14 14 14 13 12 12 13 13 15 16 17 17 16 15 15 16 15 14 14 14 15 15 15 16 15 15 11 4 6 5 4 5 6 7 7 7 7 7 9 10 9 8 8 8
24 23 23 24 20 15 15 13 10 10 12 20 21 20 18 9 9 9 10 10 11 11 12 12 13 13 12 12 13 14 14 13 13 13 13 13 13 12 13 14 14 13 14 15 14 14 14 14 15 15 16 17 17 16 14 13 13 12 7 8 6 4 5 6 7 5 6 5 7 8 9 8 9 8
13 16 16 12 17 15 19 18 16 14 14 11 10 9 8 8 8 9 9 10 11 12 12 13 13 13 14 14 14 13 13 13 12 11 13 12 13 13 13 14 15 14 14 13 13 13 14 15 14 15 16 16 16 15 14 12 12 12 8 9 9 7 4 7 5 6 7 7 6 6 5 7 7 8
12 10 11 12 8 9 8 9 7 7 7 8 9 9 9 9 10 12 16 15 11 10 11 12 13 13 12 12 13 13 12 13 14 13 12 12 13 13 13 13 14 13 14 13 13 12 13 13 13 13 15 15 17 14 12 11 13 12 9 9 9 9 5 6 7 7 6 4 5 6 8 9 9 8
9 8 8 7 8 8 9 9 8 8 8 8 8 9 9 9 10 10 9 10 10 11 11 12 12 13 12 13 12 12 13 12 13 12 13 12 12 12 11 13 14 13 14 14 12 13 11 11 11 13 15 14 15 17 14 13 13 10 8 5 6 5 4 5 6 6 6 5 6 7 8 9 9 9
6 6 7 7 8 8 8 9 9 9 9 10 10 9 11 10 9 10 10 10 11 12 12 12 12 12 12 12 12 12 13 13 11 12 14 13 12 12 13 13 13 13 14 14 13 12 11 11 11 12 13 16 12 12 14 14 9 6 7 7 7 8 7 5 5 6 7 8 8 7 8 9 8 9
5 5 7 7 7 7 7 7 8 9 9 9 10 11 10 9 9 10 10 11 11 11 12 12 12 12 11 12 11 11 12 12 12 11 11 12 12 12 12 12 13 14 14 14 14 12 10 11 10 11 10 9 9 7 5 7 10 7 5 7 6 8 7 5 6 5 6 6 5 6 7 7 8 8
4 4 6 7 8 8 8 8 8 8 8 9 9 10 10 11 9 10 11 11 11 12 12 12 12 11 11 12 12 12 12 12 12 11 11 11 12 12 12 12 13 13 13 13 13 11 9 11 10 11 9 7 6 6 6 11 11 4 5 5 6 7 6 5 5 5 6 6 6 7 8 9 9 8
6 6 6 6 7 8 8 9 9 9 8 9 9 9 9 10 12 10 10 12 10 10 11 11 12 12 12 13 12 12 12 11 11 11 11 11 12 13 12 13 13 13 14 14 13 12 10 11 11 12 11 9 7 8 6 3 8 9 7 6 3 4 5 5 5 5 7 7 7 9 9 9 8 8
8 7 7 7 7 8 8 8 8 9 9 9 8 9 9 9 9 10 11 9 9 9 10 10 11 12 12 10 11 12 11 11 11 11 11 10 11 11 12 12 13 13 13 13 12 12 11 12 12 12 11 10 8 8 7 3 1 2 7 7 6 5 5 6 7 8 8 6 8 9 8 9 8 6
6 7 7 7 8 8 8 9 8 9 9 9 9 9 10 9 9 9 9 10 9 9 12 13 13 13 13 14 13 13 12 10 9 10 10 11 11 12 12 13 13 12 13 13 12 12 11 12 12 11 11 10 9 7 5 5 4 1 3 13 6 5 6 6 7 5 4 6 6 1 2 2 5 7
6 6 6 7 8 8 9 8 8 9 9 9 9 10 10 10 9 9 9 10 13 14 13 13 14 14 13 13 13 13 12 13 12 10 10 11 11 11 11 12 12 12 11 12 12 12 10 9 8 10 10 6 2 2 1 1 3 1 0 3 12 6 5 5 5 5 5 3 3 5 3 2 1 1
7 7 7 7 7 8 8 9 8 9 9 10 11 10 9 9 9 10 12 14 13 13 13 13 13 14 13 13 13 12 13 11 10 10 10 11 12 11 12 13 12 11 11 13 13 11 9 4 4 6 3 7 8 7 4 3 3 3 3 1 1 6 5 3 2 4 4 5 5 5 5 3 3 2
6 7 8 7 7 8 8 8 10 10 10 9 9 9 9 8 8 17 15 13 11 12 12 13 13 13 13 13 12 12 12 12 10 10 9 9 10 10 12 11 11 11 10 12 12 9 1 3 2 5 4 5 5 5 4 5 4 3 2 3 3 5 8 8 8 6 2 3 4 4 3 2 1 1
6 6 7 8 7 7 7 8 8 9 10 10 10 10 9 10 10 13 14 14 12 12 12 13 13 12 13 12 12 12 12 12 10 9 9 9 9 10 10 8 8 9 9 6 2 3 3 3 3 3 3 3 3 4 5 4 4 4 4 4 4 5 7 9 10 11 10 9 6 4 2 2 3 3
6 6 7 7 7 8 8 8 9 9 10 10 10 10 10 10 9 13 13 13 12 12 13 12 12 13 13 13 13 12 11 12 12 11 9 9 8 9 9 10 8 5 3 3 3 4 4 3 3 3 3 2 2 2 3 5 4 4 5 4 4 5 6 6 7 10 13 17 15 7 8 7 5 2
6 6 6 7 7 7 7 8 8 9 10 10 11 11 11 10 9 13 13 13 13 13 13 12 12 12 13 13 12 13 13 14 12 11 11 10 9 8 8 7 6 4 2 2 1 2 3 3 3 4 4 3 3 3 3 4 5 5 4 5 6 5 5 5 6 6 6 5 15 14 5 4 5 5
Wind_Direction
301 304 306 307 305 306 301 295 290 293 291 287 283 279 280 288 288 298 286 276 289 297 301 308 276 203 237 258 283 289 289 286 281 273 272 269 271 267 275 277 277 275 273 271 269 268 267 265 262 260 259 258 257 256 255 253 254 257 261 264 267 259 228 224 230 230 231 236 238 239 238 237 236 236
316 308 305 303 302 297 294 294 293 292 291 285 284 282 273 267 271 282 287 287 261 282 284 248 277 203 309 297 260 268 276 282 286 274 267 263 266 261 265 273 277 276 274 271 267 266 266 265 263 261 259 258 257 256 255 254 251 250 254 254 257 259 250 229 223 226 229 233 237 236 236 235 236 236
320 317 314 312 303 302 296 292 290 284 282 285 282 275 269 259 260 270 279 286 273 197 290 286 265 296 300 298 294 274 262 266 269 273 277 270 272 270 267 267 271 273 274 271 267 264 263 263 264 263 261 258 257 256 256 255 252 250 249 251 251 251 249 240 230 232 232 233 236 236 235 235 234 236
316 311 307 308 309 310 305 300 297 293 283 280 282 279 274 269 256 262 271 269 278 270 261 276 285 292 296 290 286 287 269 266 259 264 263 273 282 271 265 268 266 269 269 269 268 265 263 261 262 262 262 261 260 257 255 255 254 252 248 247 247 246 243 239 233 228 226 225 228 235 237 235 232 234
316 312 308 307 305 302 298 297 299 296 293 288 280 276 275 272 267 262 267 274 283 284 246 250 273 282 299 297 286 285 289 276 271 264 261 265 265 270 268 265 265 263 265 265 265 263 261 260 260 260 261 260 260 259 257 255 253 251 249 247 245 243 240 235 230 226 218 219 223 229 236 240 233 230
316 312 309 309 312 310 300 301 299 298 297 293 289 286 283 279 279 264 270 273 278 286 291 278 260 270 244 276 290 291 294 290 280 274 271 261 250 260 265 268 260 250 261 262 261 259 259 259 259 259 259 261 262 260 258 255 253 250 249 247 245 242 237 234 230 223 217 218 223 226 231 238 238 232
320 316 313 312 316 315 308 305 302 303 299 296 291 287 283 280 278 276 265 272 278 282 285 286 283 274 262 253 278 287 291 290 286 280 270 267 266 249 253 258 260 251 257 260 260 260 259 258 258 257 257 257 259 260 259 257 254 249 247 246 245 242 237 233 231 226 220 217 220 225 228 233 237 235
318 315 314 313 317 316 309 305 306 304 299 298 296 292 289 284 283 279 275 265 269 279 286 287 285 282 279 266 266 271 275 282 288 278 278 260 249 260 252 251 257 251 259 261 261 261 259 258 257 256 255 255 255 257 258 257 255 251 245 242 243 242 239 233 231 230 227 222 218 223 227 231 234 236
307 307 305 307 310 310 304 304 304 304 301 297 292 289 289 287 286 284 281 277 272 274 275 283 283 284 277 272 267 267 274 275 275 281 276 272 267 257 249 249 249 258 255 261 263 260 259 259 258 256 255 255 254 254 255 256 255 253 248 241 238 239 238 235 231 229 228 228 226 225 226 232 235 236
306 302 300 300 302 300 298 299 301 301 299 297 291 287 286 285 283 281 280 277 276 273 274 278 285 283 279 280 268 257 260 267 273 272 273 276 261 259 263 242 235 229 241 246 251 255 257 256 255 257 256 255 254 253 253 253 253 253 252 244 238 235 236 235 232 228 227 227 227 227 228 233 235 235
310 307 305 303 300 297 297 297 298 299 298 295 292 291 293 291 288 286 283 282 279 275 277 278 277 282 281 277 278 267 254 262 265 273 282 279 279 266 252 271 241 219 245 238 247 254 257 258 254 250 251 253 253 254 254 253 252 251 250 250 242 236 234 233 232 230 228 227 228 229 229 231 234 235
309 307 306 303 302 301 300 299 298 299 298 298 295 295 296 295 294 291 290 288 284 282 280 278 281 279 284 285 275 275 274 270 265 259 268 276 280 278 271 258 276 257 238 252 246 240 254 258 255 255 255 254 252 253 254 253 253 252 250 249 248 241 235 233 231 230 229 229 228 228 229 229 231 236
308 305 303 302 298 297 299 298 296 293 292 295 295 294 294 295 293 291 289 287 285 282 277 276 274 276 278 277 282 282 275 269 273 280 276 276 276 279 281 276 256 254 264 253 251 243 238 252 249 244 248 245 247 250 248 253 253 252 251 250 251 249 240 233 231 230 229 228 227 227 227 228 229 232
305 303 302 300 302 303 301 297 295 293 292 290 288 290 294 294 294 292 291 288 287 287 285 284 287 284 279 281 283 287 285 282 279 276 274 272 277 279 277 278 269 254 246 257 259 244 219 239 250 244 246 249 240 244 243 239 243 245 245 246 247 248 246 237 230 228 227 227 226 226 226 227 227 229
306 305 306 306 304 301 298 296 294 294 294 293 292 289 288 288 289 292 290 286 284 283 280 280 279 278 283 284 287 285 288 286 283 278 277 276 277 276 281 280 282 256 239 250 257 261 222 217 243 247 240 246 237 230 239 234 239 242 243 244 245 245 245 242 234 228 226 226 225 225 225 225 226 227
305 306 304 301 299 298 296 297 298 296 294 293 293 297 301 301 297 290 288 291 291 288 288 287 284 287 284 288 286 287 291 293 291 286 284 277 272 272 270 270 272 275 221 267 276 274 245 202 233 249 241 244 231 227 236 234 237 239 241 243 244 245 244 242 239 232 228 226 225 224 224 224 225 225
299 299 299 300 296 295 296 296 295 296 296 297 298 297 297 295 292 294 290 285 284 286 284 282 282 281 290 289 287 289 290 293 292 295 291 290 281 271 267 267 271 275 278 266 277 278 275 229 224 246 238 240 235 233 235 239 238 238 239 241 242 243 244 244 241 237 231 227 225 224 223 223 223 224
294 295 296 297 296 295 296 294 294 294 294 293 292 286 278 274 274 277 284 289 290 290 288 286 284 286 285 284 289 291 294 292 288 287 283 282 281 280 275 281 282 282 286 283 286 281 276 268 239 248 251 240 236 233 236 233 234 237 238 239 241 242 242 244 243 240 235 230 226 224 223 222 223 223
292 291 289 289 290 290 292 292 291 291 291 290 285 275 269 267 269 273 279 286 286 284 282 283 284 285 284 282 283 283 285 281 279 277 280 280 276 274 274 272 267 270 267 268 270 271 276 271 259 253 263 257 237 231 242 230 232 234 237 238 239 239 240 242 243 242 237 233 228 225 223 222 222 223
289 288 285 283 280 277 278 280 288 291 293 291 281 277 271 269 275 285 283 280 280 280 283 285 286 286 284 284 283 285 290 292 287 280 279 279 274 269 264 260 258 254 246 243 252 261 265 262 261 264 263 261 251 237 234 234 233 233 234 236 237 237 238 239 243 245 242 236 232 228 225 223 221 221
287 283 279 272 271 277 277 278 287 292 293 289 283 282 279 276 273 272 275 274 275 280 282 282 284 287 290 291 291 294 293 290 294 301 298 295 302 290 279 272 265 254 246 230 226 252 263 261 259 265 263 259 257 252 235 223 233 233 234 235 236 237 237 237 239 243 246 243 236 231 227 225 222 220
283 274 271 278 285 286 283 282 283 288 294 291 284 276 275 275 270 267 269 274 270 265 269 274 277 283 288 290 291 293 298 299 299 295 289 298 303 291 288 289 288 289 278 257 228 236 247 259 257 265 268 267 246 250 250 239 229 233 236 236 236 236 235 234 234 238 244 246 244 236 229 226 223 220
278 278 276 275 285 291 291 292 294 292 293 289 280 276 273 275 267 270 266 263 267 270 270 267 269 267 271 276 286 291 293 293 293 290 290 298 292 289 288 286 290 284 269 272 235 246 250 251 251 253 265 265 261 241 240 242 236 219 224 232 237 236 235 233 232 233 238 242 244 241 233 227 220 216
271 269 272 272 276 291 293 294 293 293 290 285 282 280 282 286 285 284 278 267 269 271 273 278 279 283 290 290 290 291 290 288 285 285 284 284 283 281 284 284 281 276 276 274 311 282 276 275 278 266 257 268 274 262 186 238 222 216 214 225 230 233 234 234 234 233 235 236 241 244 241 233 220 215
268 280 263 250 272 293 295 294 292 289 289 289 286 287 274 274 284 294 299 302 304 295 290 287 288 289 287 286 284 284 283 281 280 278 276 273 270 273 278 282 280 280 283 289 277 264 270 270 271 273 265 257 262 265 208 219 216 226 222 226 234 228 226 229 227 227 235 237 238 240 243 243 234 221
291 282 284 289 292 295 295 292 288 292 295 299 305 297 300 301 304 305 301 301 307 310 306 301 295 291 287 285 284 282 281 279 279 280 281 283 284 281 278 276 276 276 278 290 295 289 282 266 257 264 260 255 256 250 260 243 201 227 212 221 224 226 209 218 216 219 214 219 235 239 241 243 244 236
289 299 298 293 293 293 290 289 295 299 308 315 312 308 306 308 308 312 323 324 315 306 301 297 292 288 286 286 285 282 281 280 278 279 278 279 280 280 280 279 276 275 281 282 280 283 284 283 277 265 266 266 269 260 241 247 243 172 226 218 227 225 216 218 218 216 213 218 223 229 238 244 245 246
297 297 290 284 294 300 307 313 318 320 321 315 314 312 312 314 321 331 326 318 309 302 296 292 288 286 285 284 284 284 284 284 284 282 279 277 276 275 275 277 278 277 277 274 273 270 271 272 272 263 260 259 262 262 259 237 236 189 206 206 217 220 217 218 222 221 214 214 220 218 220 228 239 247
290 295 301 306 309 314 324 331 333 331 325 319 316 318 320 327 331 323 313 307 304 298 294 291 289 288 288 288 288 290 291 291 288 284 282 280 279 276 276 277 276 278 279 274 268 264 260 260 264 267 260 253 254 258 259 253 243 212 185 192 212 214 217 217 221 219 216 211 218 218 213 215 224 226
308 310 312 314 322 336 336 329 325 321 322 322 324 324 324 319 310 305 303 298 297 292 294 293 291 291 294 294 295 295 294 290 285 286 283 283 279 276 278 280 278 276 272 269 264 261 260 261 261 259 260 257 252 254 254 256 245 238 187 199 213 208 207 214 217 219 215 215 215 219 222 214 217 212
317 312 315 327 332 337 331 329 326 323 322 320 317 315 313 308 304 302 298 297 298 299 296 295 294 296 294 294 294 293 295 290 287 286 286 285 283 282 280 279 281 282 277 271 264 253 251 255 258 258 258 257 256 251 252 249 250 241 215 210 209 212 188 201 205 209 212 216 219 217 222 222 226 221
329 337 346 342 346 336 332 327 320 315 314 315 317 318 320 316 311 308 306 301 292 288 292 291 294 292 295 293 293 293 290 290 291 288 283 282 283 281 283 282 281 285 286 284 280 268 254 249 250 251 252 253 252 252 249 244 242 239 227 205 210 226 207 184 197 210 200 209 219 227 224 224 223 217
354 347 342 341 337 338 334 332 327 326 325 322 318 313 312 313 314 311 308 308 305 304 303 299 297 296 295 294 293 290 289 284 291 289 284 281 278 278 274 275 279 282 284 282 278 274 269 265 257 257 255 252 245 245 246 243 234 227 224 191 197 207 194 187 197 193 187 192 217 223 231 230 228 226
350 339 330 330 335 332 333 329 328 327 326 323 322 318 318 314 308 310 310 305 303 303 300 297 297 294 294 291 290 286 284 284 283 288 288 286 283 283 279 277 275 276 277 278 276 271 270 269 270 266 254 247 244 241 235 235 229 213 216 213 197 221 223 185 193 192 185 189 200 215 226 232 229 230
343 333 332 327 324 326 321 317 320 320 318 315 314 314 313 307 307 308 302 300 298 298 295 292 286 283 280 278 278 278 278 278 279 282 283 282 279 273 275 277 279 278 277 278 277 276 276 276 274 268 253 230 227 226 215 242 242 219 213 221 212 212 218 191 182 184 190 201 201 214 229 234 239 234
331 331 329 326 326 324 323 319 315 313 311 308 307 307 308 309 306 308 305 302 299 294 293 289 284 279 277 276 277 275 276 276 276 274 278 281 282 279 278 275 278 280 279 278 276 270 267 269 267 257 236 218 206 222 221 185 196 225 214 210 196 201 198 191 184 179 186 198 200 206 222 232 236 236
333 330 328 321 320 321 318 318 317 312 309 307 306 303 301 303 308 305 296 300 290 285 286 288 289 288 285 283 279 275 272 272 273 274 272 277 277 278 276 276 274 276 276 272 267 265 260 258 253 248 229 210 205 217 222 99 211 218 220 226 202 189 192 190 183 190 199 197 202 210 220 231 237 235
332 330 326 324 321 318 314 312 313 311 310 309 304 302 296 295 297 304 304 304 296 286 283 289 292 292 291 284 285 281 273 267 267 269 267 267 270 274 277 278 279 279 281 283 281 279 273 264 254 240 225 211 199 206 216 187 97 234 209 210 207 192 181 186 197 203 210 208 214 220 224 231 236 247
322 320 320 317 319 318 316 314 314 309 308 307 308 305 305 305 303 310 313 310 294 298 314 315 310 310 310 308 303 296 287 277 269 266 267 270 270 273 276 278 279 275 272 271 269 268 269 261 244 225 211 206 197 197 193 194 205 128 211 212 203 176 188 189 198 193 194 200 211 97 52 45 54 54
322 317 314 315 312 314 312 312 310 310 308 305 304 305 305 310 311 312 310 316 325 324 318 312 313 313 310 308 306 302 292 279 270 267 264 268 270 270 272 278 279 280 279 278 279 278 265 247 225 205 199 196 138 91 122 123 68 68 40 213 210 192 187 181 189 189 197 188 193 197 199 182 173 201
328 321 317 315 307 311 310 309 310 308 307 304 305 301 304 311 315 315 327 332 326 320 319 320 319 316 311 308 306 304 300 287 272 268 267 265 266 266 268 274 277 274 272 276 277 275 257 253 338 6 57 68 86 87 100 131 166 145 126 41 257 193 161 170 189 200 196 190 186 197 203 192 203 179
310 306 308 311 311 310 311 310 316 317 312 308 307 309 310 311 312 332 332 326 324 321 324 324 321 319 314 312 309 306 302 293 280 274 270 271 271 270 267 267 270 272 265 268 269 270 332 58 71 97 99 106 117 158 192 186 170 135 105 98 64 97 120 103 80 74 109 154 153 131 97 82 80 170
306 303 308 313 312 310 311 309 312 311 311 313 314 312 310 315 320 335 340 335 330 328 326 327 323 320 315 311 307 306 306 306 288 275 275 273 273 272 273 268 272 279 286 294 353 48 54 50 84 100 97 132 166 189 200 178 133 128 125 105 99 87 83 81 78 83 78 72 65 67 104 157 164 198
310 311 312 314 315 314 313 314 314 316 316 316 315 315 315 317 323 337 339 336 332 328 327 324 323 321 319 316 314 314 315 318 318 300 282 282 283 290 296 300 301 304 325 335 20 34 41 50 54 93 121 127 144 167 134 108 117 125 125 112 101 91 86 79 68 59 53 41 34 70 86 95 93 93
309 309 309 313 312 311 308 310 312 315 316 316 318 320 318 316 324 339 341 339 336 332 328 324 321 322 321 319 322 322 321 322 321 322 316 302 296 298 297 303 303 311 340 352 49 67 60 70 69 59 59 52 40 76 84 114 124 130 123 120 104 94 97 105 92 77 53 51 9 13 133 113 116 99